天目一号 10星 (TIANMU-1 10)

导读

TIANMU-1 10(天目一号010星)由中国于北京时间2023年7月20日发射,是天目一号气象星座第三批组网卫星中的一颗。该卫星运行于520公里高度太阳同步轨道,依托导航信号折射反射分析实现气象探测,为全球数值天气预报、台风监测等提供商业气象数据支撑,服务国计民生与国家气象战略。

Basic Information
目录编号:
57402
目录名称:
TIANMU-1 10
国际标识:
2023-101D
轨道中心:
EARTH
卫星名称:
天目一号 10星
卫星全名:
天目一号 10星 (TIANMU-1 10)
卫星状态:
在轨 (已飞行1149 天)
发射日期:
2023-07-20 UTC
国别 :
中国 (CN)
星等 :
--
This satellite is enrolled in the Space Conjunction Data Service (SCDS) and the current flight risk assessment level is: No High Risk
Orbit Information
数据来源 国际轨道数据 AOE轨道数据
星历时间 2026-09-11T04:59:53+0800
10小时前
查看轨道信息
2026-09-06T23:00:00+0800
4天前
查看轨道信息
半长轴 6851.872km 6851.992km
偏心率 0.0004683 0.0004206
轨道倾角 97.255° 97.255°
近地点辐角 168.238° 184.010°
升交点赤经 302.860° 298.703°
平近点角 191.897° 172.395°
近地点 470.526km 470.973km
远地点 476.944km 476.737km
周期 94.075分钟 94.077分钟
每日圈数 15.306961 15.306559
Detailed Information
覆盖范围:
全球
运营商:
中国航天科工集团有限公司
运营商所在国:
中国
制造商(研发单位):
中国航天科工集团有限公司
制造商所在国:
中国
使用方式:
暂无
Satellite Introduction
天目一号气象星座,是由中国航天科工集团落户西部(重庆)科学城西永微电园企业研制,主要用于获取全球大气环境要素信息,建成后可实现全球全天候海洋、大气层、电离层的立体化、一体化探测。该卫星仍在工作。
2D Orbit Map
3D Orbit Map
Orbit Altitude Analysis Chart
Orbit Inclination Analysis Chart
Orbit Comprehensive Analysis Chart
View Comprehensive Chart
Conjunction Data List
Event ID Objects TCA Miss Dist (km) Collision Risk Probability Collision Risk Index (CRI) Action
CDM_260913-001705-740206-470522
2026-09-13T
00:17:49+0000
1.074 km
极远距离
1.841597E-5 中风险 0.6
CDM_260912-133605-740205-798523
2026-09-12T
13:36:47+0000
1.445 km
极远距离
5.828421E-6 低风险 0.5
CDM_260911-061305-740206-648823
2026-09-11T
06:13:40+0000
2.041 km
极远距离
2.205263E-6 低风险 0.42
CDM_260911-123405-740205-800923
2026-09-11T
12:34:43+0000
2.248 km
极远距离
2.100324E-6 低风险 0.41
CDM_260910-161005-599405-740225
2026-09-10T
16:10:40+0000
2.457 km
极远距离
1.754689E-6 低风险 0.4
CDM_260913-192705-692005-740221
2026-09-13T
19:27:30+0000
2.487 km
极远距离
1.696646E-6 低风险 0.4
CDM_260910-235705-740206-332023
2026-09-10T
23:57:01+0000
2.827 km
极远距离
1.306859E-6 低风险 0.37
CDM_260911-005704-828705-740221
2026-09-11T
00:57:28+0000
2.291 km
极远距离
1.191121E-6 低风险 0.37
CDM_260913-035305-740206-250121
2026-09-13T
03:53:30+0000
2.458 km
极远距离
1.163029E-6 低风险 0.36
CDM_260910-185005-740206-410723
2026-09-10T
18:50:37+0000
2.761 km
极远距离
1.097184E-6 低风险 0.36
Miss Distance Evolution Trend with All Objects
Collision Probability Evolution Trend with All Objects